User: anonymous
Location: Penticton
(49.5000°N, 119.5830°W)
Time: 07:02:08
(UTC-07:00)
Language:

NOSS 3-4 (A) - Orbit

View from above orbital plane
View from above orbital plane
View from above satellite
View from above satellite

Ground track
Ground track

The orbit data is extracted from the following two-line orbital elements,

1 31701U 07027A   14230.89942855 0.00000000  00000-0  00000-0 0    01
2 31701  63.4030 196.5746 0111000  37.4535 322.5465 13.40651171    04
Epoch (UTC): 18 August 2014 21:35:10
Eccentricity: 0.0111000
inclination: 63.4030°
perigee height: 1024 km
apogee height: 1190 km
right ascension of ascending node: 196.5746°
argument of perigee: 37.4535°
revolutions per day: 13.40651171
mean anomaly at epoch: 322.5465°
orbit number at epoch: 0

The dashed part of the orbit path shows where the satellite is in the earth's shadow,  

DLR